This is the latest recevied weather packets stored in our database for station/object KC8UZG. If no packets are shown the sender has not sent any weather packets the latest 10 day(s).
| Time | Temp. | Humidity | Pressure | Rain* | Wind** | Luminosity | Snow |
|---|---|---|---|---|---|---|---|
| 1777424726 | 16.11° C | 91% | 1013.2 hPa | 0 mm | - | 0 W/m² | - |
| 1777424132 | 16.11° C | 90% | 1013.2 hPa | 0 mm | - | 0 W/m² | - |
| 1777423538 | 16.67° C | 89% | 1013.5 hPa | 0 mm | - | 0 W/m² | - |
| 1777422917 | 16.67° C | 88% | 1013.6 hPa | 0 mm | - | 0 W/m² | - |
| 1777422323 | 17.22° C | 87% | 1013.4 hPa | 0 mm | - | 0 W/m² | - |
| 1777421729 | 17.78° C | 85% | 1013.5 hPa | 0 mm | - | 0 W/m² | - |
| 1777421136 | 18.33° C | 82% | 1013.1 hPa | 0 mm | - | 3 W/m² | - |
| 1777420541 | 18.33° C | 79% | 1012.8 hPa | 0 mm | - | 9 W/m² | - |
| 1777419920 | 18.89° C | 78% | 1012.6 hPa | 0 mm | - | 20 W/m² | - |
| 1777419326 | 18.89° C | 76% | 1012.6 hPa | 0 mm | - | 26 W/m² | - |
| 1777418732 | 19.44° C | 75% | 1012.2 hPa | 0 mm | - | 34 W/m² | - |
| 1777418139 | 19.44° C | 74% | 1011.8 hPa | 0 mm | - | 47 W/m² | - |
| 1777417517 | 20° C | 74% | 1012.1 hPa | 0 mm | - | 54 W/m² | - |
| 1777416924 | 20° C | 74% | 1012.2 hPa | 0 mm | - | 67 W/m² | - |
| 1777416329 | 20° C | 71% | 1012.2 hPa | 0 mm | - | 71 W/m² | - |
| 1777415735 | 20° C | 71% | 1012.5 hPa | 0 mm | - | 81 W/m² | - |
| 1777415141 | 20° C | 70% | 1012.9 hPa | 0 mm | - | 84 W/m² | - |
| 1777414520 | 20° C | 71% | 1012.9 hPa | 0 mm | - | 95 W/m² | - |
| 1777413926 | 20.56° C | 71% | 1012.9 hPa | 0 mm | - | 98 W/m² | - |
| 1777413332 | 20.56° C | 70% | 1012.5 hPa | 0 mm | - | 114 W/m² | - |
| 1777412738 | 20.56° C | 71% | 1012.9 hPa | 0 mm | - | 76 W/m² | - |
| 1777412117 | 21.11° C | 71% | 1013.2 hPa | 0 mm | - | 197 W/m² | - |
| 1777411523 | 20.56° C | 72% | 1013.2 hPa | 0 mm | - | 135 W/m² | - |
| 1777410929 | 21.11° C | 70% | 1012.9 hPa | 0 mm | - | 206 W/m² | - |
| 1777410335 | 21.11° C | 71% | 1013 hPa | 0 mm | - | 180 W/m² | - |
* Rain latest hour (hover to see other rain measurements)
** Current wind speed in m/s (hover to see current wind gust speed)